Dades meteomassalio
Diari Summary for Abril 12, 2017 Units:  Metric    English   Both
« Previous Day
Next Day »
Diari Semanal Mensual Anual Personalitzat
  Maxima: Minima: Mijana:
Temperatura: 24.7 °C 6.1 °C 15.9 °C
Rosada: 7.6 °C 2.7 °C 4.6 °C
Humitat: 80 % 25 % 50 %
Velocitat del vent: 22.2 km/h 0.0 km/h 3.7 km/h
Racha vent: 22.2 km/h - -
Vent:- - WSW
Pressio: 1021.9 hPa 1016.5 hPa -
Pluja: 0.0 mm    
Historical Graphs
 
 
Tabular Data for Abril 12, 2017
Time Temperature Dew Point Pressure Wind Wind Speed Wind Gust Humidity Rainfall Rate (Hourly) solar Conditions
00:03 17.4 °C 4.1 °C 1020.5 hPa West 22.2 km/h 22.2 km/h 41 % 0.0 mm 0.0 W/m2 CLR
00:08 17.4 °C 4.0 °C 1020.5 hPa West 19.3 km/h 19.3 km/h 41 % 0.0 mm 0.0 W/m2 CLR
00:13 17.3 °C 3.9 °C 1020.5 hPa West 18.5 km/h 18.5 km/h 41 % 0.0 mm 0.0 W/m2 CLR
00:18 17.2 °C 3.8 °C 1020.5 hPa West 19.3 km/h 19.3 km/h 41 % 0.0 mm 0.0 W/m2 CLR
00:23 17.1 °C 3.7 °C 1020.5 hPa West 20.4 km/h 20.4 km/h 41 % 0.0 mm 0.0 W/m2 CLR
00:28 17.0 °C 4.0 °C 1020.5 hPa WSW 3.7 km/h 3.7 km/h 42 % 0.0 mm 0.0 W/m2 CLR
00:33 16.6 °C 3.6 °C 1020.5 hPa West 5.6 km/h 5.6 km/h 42 % 0.0 mm 0.0 W/m2 CLR
00:38 16.2 °C 3.6 °C 1020.5 hPa WSW 9.3 km/h 9.3 km/h 43 % 0.0 mm 0.0 W/m2 CLR
00:43 16.1 °C 3.4 °C 1020.5 hPa WSW 7.4 km/h 7.4 km/h 43 % 0.0 mm 0.0 W/m2 CLR
00:48 15.9 °C 3.7 °C 1020.5 hPa West 9.3 km/h 9.3 km/h 44 % 0.0 mm 0.0 W/m2 CLR
00:53 15.8 °C 3.6 °C 1020.9 hPa West 7.4 km/h 7.4 km/h 44 % 0.0 mm 0.0 W/m2 CLR
00:58 15.6 °C 3.4 °C 1020.9 hPa WSW 5.6 km/h 5.6 km/h 44 % 0.0 mm 0.0 W/m2 CLR
01:03 15.4 °C 3.5 °C 1020.5 hPa WSW 6.4 km/h 6.4 km/h 45 % 0.0 mm 0.0 W/m2 CLR
01:08 15.3 °C 3.8 °C 1020.9 hPa WSW 7.4 km/h 7.4 km/h 46 % 0.0 mm 0.0 W/m2 CLR
01:13 15.2 °C 3.7 °C 1020.9 hPa WSW 3.7 km/h 3.7 km/h 46 % 0.0 mm 0.0 W/m2 CLR
01:18 15.1 °C 3.6 °C 1020.5 hPa West 5.6 km/h 5.6 km/h 46 % 0.0 mm 0.0 W/m2 CLR
01:23 15.0 °C 3.8 °C 1020.5 hPa West 5.6 km/h 5.6 km/h 47 % 0.0 mm 0.0 W/m2 CLR
01:28 15.1 °C 3.8 °C 1020.5 hPa West 5.6 km/h 5.6 km/h 47 % 0.0 mm 0.0 W/m2 CLR
01:33 15.1 °C 4.1 °C 1020.5 hPa West 5.6 km/h 5.6 km/h 48 % 0.0 mm 0.0 W/m2 CLR
01:38 15.1 °C 4.1 °C 1020.5 hPa WSW 5.6 km/h 5.6 km/h 48 % 0.0 mm 0.0 W/m2 CLR
01:43 14.9 °C 4.0 °C 1020.5 hPa West 9.7 km/h 9.7 km/h 48 % 0.0 mm 0.0 W/m2 CLR
01:48 14.8 °C 3.9 °C 1020.5 hPa West 11.1 km/h 11.1 km/h 48 % 0.0 mm 0.0 W/m2 CLR
01:53 14.9 °C 3.9 °C 1020.9 hPa West 12.9 km/h 12.9 km/h 48 % 0.0 mm 0.0 W/m2 CLR
01:58 14.9 °C 3.9 °C 1020.9 hPa West 11.1 km/h 11.1 km/h 48 % 0.0 mm 0.0 W/m2 CLR
02:03 14.7 °C 3.8 °C 1020.9 hPa WSW 9.7 km/h 9.7 km/h 48 % 0.0 mm 0.0 W/m2 CLR
02:08 14.7 °C 3.8 °C 1020.9 hPa West 11.1 km/h 11.1 km/h 48 % 0.0 mm 0.0 W/m2 CLR
02:13 14.8 °C 3.9 °C 1020.9 hPa West 9.7 km/h 9.7 km/h 48 % 0.0 mm 0.0 W/m2 CLR
02:18 14.8 °C 3.9 °C 1020.9 hPa West 5.6 km/h 5.6 km/h 48 % 0.0 mm 0.0 W/m2 CLR
02:23 14.7 °C 4.1 °C 1020.9 hPa Calm     49 % 0.0 mm 0.0 W/m2 CLR
02:28 13.8 °C 3.8 °C 1020.9 hPa Calm     51 % 0.0 mm 0.0 W/m2 CLR
02:33 12.7 °C 3.7 °C 1020.9 hPa WSW 5.6 km/h 5.6 km/h 54 % 0.0 mm 0.0 W/m2 CLR
02:38 12.2 °C 3.7 °C 1020.9 hPa WSW 3.2 km/h 3.2 km/h 56 % 0.0 mm 0.0 W/m2 CLR
02:43 12.4 °C 3.8 °C 1020.9 hPa WNW 4.8 km/h 4.8 km/h 56 % 0.0 mm 0.0 W/m2 CLR
02:48 12.8 °C 4.0 °C 1020.9 hPa Calm     55 % 0.0 mm 0.0 W/m2 CLR
02:53 12.9 °C 4.1 °C 1020.9 hPa Calm     55 % 0.0 mm 0.0 W/m2 CLR
02:58 12.8 °C 3.9 °C 1020.9 hPa Calm     55 % 0.0 mm 0.0 W/m2 CLR
03:03 12.3 °C 3.8 °C 1020.9 hPa Calm     56 % 0.0 mm 0.0 W/m2 CLR
03:08 11.9 °C 3.7 °C 1020.9 hPa Calm     57 % 0.0 mm 0.0 W/m2 CLR
03:13 11.6 °C 3.6 °C 1020.9 hPa Calm     58 % 0.0 mm 0.0 W/m2 CLR
03:18 11.2 °C 3.7 °C 1020.9 hPa Calm     60 % 0.0 mm 0.0 W/m2 CLR
03:23 11.1 °C 3.9 °C 1020.9 hPa Calm     61 % 0.0 mm 0.0 W/m2 CLR
03:28 11.1 °C 3.8 °C 1020.9 hPa Calm     61 % 0.0 mm 0.0 W/m2 CLR
03:33 10.7 °C 3.7 °C 1020.9 hPa Calm     62 % 0.0 mm 0.0 W/m2 CLR
03:38 10.3 °C 3.6 °C 1020.9 hPa Calm     63 % 0.0 mm 0.0 W/m2 CLR
03:43 10.0 °C 3.5 °C 1020.9 hPa Calm     64 % 0.0 mm 0.0 W/m2 CLR
03:48 9.8 °C 3.5 °C 1020.9 hPa Calm     65 % 0.0 mm 0.0 W/m2 CLR
03:53 9.4 °C 3.3 °C 1020.9 hPa Calm     66 % 0.0 mm 0.0 W/m2 CLR
03:58 9.0 °C 3.2 °C 1020.9 hPa Calm     67 % 0.0 mm 0.0 W/m2 CLR
04:03 8.7 °C 3.2 °C 1020.9 hPa Calm     68 % 0.0 mm 0.0 W/m2 CLR
04:08 8.6 °C 3.4 °C 1020.9 hPa Calm     70 % 0.0 mm 0.0 W/m2 CLR
04:13 8.6 °C 3.2 °C 1020.9 hPa Calm     69 % 0.0 mm 0.0 W/m2 CLR
04:18 8.5 °C 3.1 °C 1020.9 hPa Calm     69 % 0.0 mm 0.0 W/m2 CLR
04:23 8.2 °C 3.1 °C 1020.9 hPa Calm     70 % 0.0 mm 0.0 W/m2 CLR
04:28 8.1 °C 3.1 °C 1020.9 hPa Calm     71 % 0.0 mm 0.0 W/m2 CLR
04:33 8.1 °C 3.3 °C 1020.9 hPa Calm     72 % 0.0 mm 0.0 W/m2 CLR
04:38 8.1 °C 3.3 °C 1020.9 hPa Calm     72 % 0.0 mm 0.0 W/m2 CLR
04:43 7.9 °C 3.2 °C 1020.9 hPa Calm     72 % 0.0 mm 0.0 W/m2 CLR
04:48 7.8 °C 3.1 °C 1020.9 hPa Calm     72 % 0.0 mm 0.0 W/m2 CLR
04:49 7.8 °C 3.1 °C 1020.9 hPa Calm     72 % 0.0 mm 0.0 W/m2 CLR
04:54 7.5 °C 3.2 °C 1020.9 hPa Calm     74 % 0.0 mm 0.0 W/m2 CLR
04:59 7.4 °C 3.1 °C 1020.9 hPa Calm     74 % 0.0 mm 0.0 W/m2 CLR
05:04 7.5 °C 3.2 °C 1020.9 hPa Calm     74 % 0.0 mm 0.0 W/m2 CLR
05:09 7.4 °C 3.1 °C 1020.9 hPa Calm     74 % 0.0 mm 0.0 W/m2 CLR
05:14 7.4 °C 3.2 °C 1020.9 hPa Calm     75 % 0.0 mm 0.0 W/m2 CLR
05:19 7.4 °C 3.2 °C 1020.9 hPa Calm     75 % 0.0 mm 0.0 W/m2 CLR
05:24 7.4 °C 3.2 °C 1020.9 hPa Calm     75 % 0.0 mm 0.0 W/m2 CLR
05:29 7.4 °C 3.1 °C 1020.9 hPa Calm     74 % 0.0 mm 0.0 W/m2 CLR
05:34 7.3 °C 3.1 °C 1020.9 hPa Calm     75 % 0.0 mm 0.0 W/m2 CLR
05:39 7.2 °C 3.1 °C 1020.9 hPa Calm     75 % 0.0 mm 0.0 W/m2 CLR
05:44 7.3 °C 3.2 °C 1020.9 hPa Calm     75 % 0.0 mm 0.0 W/m2 CLR
05:49 7.4 °C 3.2 °C 1020.9 hPa Calm     75 % 0.0 mm 0.0 W/m2 CLR
05:54 7.4 °C 3.5 °C 1020.9 hPa Calm   1.6 km/h 76 % 0.0 mm 0.0 W/m2 CLR
05:59 7.6 °C 3.4 °C 1020.9 hPa Calm     75 % 0.0 mm 0.0 W/m2 CLR
06:04 7.8 °C 3.6 °C 1020.9 hPa SW 5.6 km/h 5.6 km/h 75 % 0.0 mm 0.0 W/m2 CLR
06:09 7.8 °C 3.5 °C 1020.9 hPa Calm     74 % 0.0 mm 0.0 W/m2 CLR
06:15 7.8 °C 3.5 °C 1020.9 hPa Calm     74 % 0.0 mm 0.0 W/m2 CLR
06:20 7.8 °C 3.5 °C 1020.9 hPa Calm     74 % 0.0 mm 0.0 W/m2 CLR
06:25 7.9 °C 3.6 °C 1020.9 hPa Calm     74 % 0.0 mm 0.0 W/m2 CLR
06:30 7.7 °C 3.1 °C 1020.9 hPa Calm     73 % 0.0 mm 0.0 W/m2 CLR
06:35 7.4 °C 3.3 °C 1020.9 hPa Calm     75 % 0.0 mm 0.0 W/m2 CLR
06:40 7.3 °C 3.1 °C 1020.9 hPa Calm     75 % 0.0 mm 0.0 W/m2 CLR
06:45 7.2 °C 3.3 °C 1020.9 hPa Calm     76 % 0.0 mm 0.0 W/m2 CLR
06:50 7.1 °C 3.1 °C 1020.9 hPa Calm     76 % 0.0 mm 0.0 W/m2 CLR
06:55 6.8 °C 3.1 °C 1021.2 hPa Calm     77 % 0.0 mm 0.0 W/m2 CLR
07:00 6.7 °C 2.9 °C 1021.2 hPa Calm     77 % 0.0 mm 0.0 W/m2 CLR
07:05 6.6 °C 3.0 °C 1021.2 hPa Calm     78 % 0.0 mm 0.0 W/m2 CLR
07:10 6.4 °C 2.8 °C 1021.2 hPa Calm     78 % 0.0 mm 0.0 W/m2 CLR
07:15 6.2 °C 2.7 °C 1021.2 hPa Calm     78 % 0.0 mm 0.0 W/m2 OVC
07:20 6.1 °C 2.7 °C 1021.2 hPa Calm     79 % 0.0 mm 0.0 W/m2 OVC
07:25 6.1 °C 2.9 °C 1021.2 hPa Calm     80 % 0.0 mm 0.0 W/m2 OVC
07:30 6.1 °C 2.9 °C 1021.6 hPa Calm     80 % 0.0 mm 7.0 W/m2 BKN
07:35 6.1 °C 2.9 °C 1021.6 hPa Calm     80 % 0.0 mm 9.0 W/m2 BKN
07:40 6.2 °C 2.9 °C 1021.6 hPa Calm     80 % 0.0 mm 12.0 W/m2 BKN
07:45 6.2 °C 3.0 °C 1021.6 hPa Calm     80 % 0.0 mm 14.0 W/m2 BKN
07:50 6.2 °C 3.0 °C 1021.6 hPa Calm     80 % 0.0 mm 18.0 W/m2 BKN
07:55 6.3 °C 3.1 °C 1021.6 hPa Calm     80 % 0.0 mm 23.0 W/m2 BKN
08:00 6.3 °C 3.1 °C 1021.6 hPa Calm     80 % 0.0 mm 32.0 W/m2 BKN
08:05 6.3 °C 3.1 °C 1021.6 hPa Calm     80 % 0.0 mm 40.0 W/m2 BKN
08:10 6.5 °C 3.3 °C 1021.9 hPa Calm     80 % 0.0 mm 53.0 W/m2 SCT
08:15 6.7 °C 3.3 °C 1021.9 hPa Calm     79 % 0.0 mm 69.0 W/m2 FEW
08:20 6.9 °C 3.5 °C 1021.9 hPa Calm     79 % 0.0 mm 63.0 W/m2 SCT
08:25 7.2 °C 3.6 °C 1021.9 hPa Calm     78 % 0.0 mm 98.0 W/m2 CLR
08:30 7.6 °C 3.8 °C 1021.9 hPa Calm     77 % 0.0 mm 116.0 W/m2 CLR
08:35 7.9 °C 3.9 °C 1021.9 hPa Calm     76 % 0.0 mm 137.0 W/m2 CLR
08:40 8.2 °C 4.0 °C 1021.9 hPa Calm     75 % 0.0 mm 153.0 W/m2 CLR
08:45 8.5 °C 4.1 °C 1021.9 hPa Calm     74 % 0.0 mm 172.0 W/m2 CLR
08:50 8.8 °C 4.4 °C 1021.9 hPa Calm     74 % 0.0 mm 192.0 W/m2 CLR
08:55 9.3 °C 4.5 °C 1021.9 hPa Calm     72 % 0.0 mm 47.0 W/m2 CLR
09:00 9.6 °C 4.8 °C 1021.9 hPa Calm     72 % 0.0 mm 181.0 W/m2 FEW
09:05 10.0 °C 5.0 °C 1021.9 hPa Calm     71 % 0.0 mm 246.0 W/m2 FEW
09:10 10.6 °C 4.9 °C 1021.9 hPa Calm     68 % 0.0 mm 265.0 W/m2 CLR
09:15 10.8 °C 5.2 °C 1021.6 hPa Calm     68 % 0.0 mm 283.0 W/m2 CLR
09:20 11.0 °C 5.1 °C 1021.6 hPa Calm     67 % 0.0 mm 301.0 W/m2 CLR
09:25 11.4 °C 5.5 °C 1021.6 hPa Calm     67 % 0.0 mm 316.0 W/m2 CLR
09:30 11.8 °C 5.4 °C 1021.6 hPa Calm     65 % 0.0 mm 334.0 W/m2 CLR
09:35 12.1 °C 5.7 °C 1021.6 hPa Calm     65 % 0.0 mm 348.0 W/m2 CLR
09:40 12.4 °C 5.8 °C 1021.6 hPa Calm     64 % 0.0 mm 369.0 W/m2 CLR
09:45 12.6 °C 5.7 °C 1021.6 hPa Calm     63 % 0.0 mm 385.0 W/m2 CLR
09:50 12.8 °C 5.9 °C 1021.6 hPa Calm     63 % 0.0 mm 399.0 W/m2 CLR
09:55 13.2 °C 6.1 °C 1021.6 hPa Calm     62 % 0.0 mm 413.0 W/m2 CLR
10:00 13.7 °C 6.3 °C 1021.6 hPa Calm     61 % 0.0 mm 432.0 W/m2 CLR
10:05 14.2 °C 6.8 °C 1021.6 hPa Calm     61 % 0.0 mm 448.0 W/m2 CLR
10:10 14.7 °C 7.3 °C 1021.2 hPa WNW 12.9 km/h 12.9 km/h 61 % 0.0 mm 462.0 W/m2 CLR
10:15 14.8 °C 7.1 °C 1021.2 hPa NW 16.7 km/h 16.7 km/h 60 % 0.0 mm 478.0 W/m2 CLR
10:20 14.8 °C 6.8 °C 1021.2 hPa West 14.8 km/h 14.8 km/h 59 % 0.0 mm 492.0 W/m2 CLR
10:25 14.8 °C 6.9 °C 1021.2 hPa NW 16.7 km/h 16.7 km/h 59 % 0.0 mm 510.0 W/m2 CLR
10:30 15.0 °C 7.1 °C 1021.6 hPa West 16.7 km/h 16.7 km/h 59 % 0.0 mm 524.0 W/m2 CLR
10:33 15.0 °C 6.8 °C 1021.6 hPa West 9.3 km/h 9.3 km/h 58 % 0.0 mm 533.0 W/m2 CLR
10:38 15.2 °C 6.9 °C 1021.6 hPa WNW 18.5 km/h 18.5 km/h 58 % 0.0 mm 547.0 W/m2 CLR
10:43 15.1 °C 6.7 °C 1021.6 hPa WNW 13.0 km/h 13.0 km/h 57 % 0.0 mm 561.0 W/m2 CLR
10:48 15.2 °C 7.0 °C 1021.6 hPa NNW 14.8 km/h 14.8 km/h 58 % 0.0 mm 575.0 W/m2 CLR
10:53 15.4 °C 7.2 °C 1021.2 hPa NW 11.1 km/h 11.1 km/h 58 % 0.0 mm 589.0 W/m2 CLR
10:58 15.7 °C 7.2 °C 1021.2 hPa WNW 13.0 km/h 13.0 km/h 57 % 0.0 mm 601.0 W/m2 CLR
11:03 15.7 °C 7.2 °C 1021.2 hPa WNW 5.6 km/h 5.6 km/h 57 % 0.0 mm 615.0 W/m2 CLR
11:08 15.8 °C 7.3 °C 1021.2 hPa West 8.0 km/h 8.0 km/h 57 % 0.0 mm 631.0 W/m2 CLR
11:13 16.1 °C 7.3 °C 1021.6 hPa WNW 12.9 km/h 12.9 km/h 56 % 0.0 mm 642.0 W/m2 CLR
11:18 16.3 °C 7.2 °C 1021.6 hPa West 3.2 km/h 3.2 km/h 55 % 0.0 mm 656.0 W/m2 CLR
11:23 16.4 °C 6.8 °C 1021.2 hPa WNW 11.1 km/h 11.1 km/h 53 % 0.0 mm 668.0 W/m2 CLR
11:28 16.6 °C 6.9 °C 1021.2 hPa WNW 5.6 km/h 5.6 km/h 53 % 0.0 mm 679.0 W/m2 CLR
11:33 16.7 °C 7.1 °C 1021.2 hPa NNW 7.4 km/h 7.4 km/h 53 % 0.0 mm 691.0 W/m2 CLR
11:38 17.0 °C 7.6 °C 1021.2 hPa NNE 3.7 km/h 3.7 km/h 54 % 0.0 mm 701.0 W/m2 CLR
11:43 17.3 °C 6.8 °C 1021.2 hPa WNW 11.1 km/h 11.1 km/h 50 % 0.0 mm 712.0 W/m2 CLR
11:48 17.3 °C 7.4 °C 1021.2 hPa NW 16.7 km/h 16.7 km/h 52 % 0.0 mm 724.0 W/m2 CLR
11:53 17.4 °C 6.9 °C 1021.2 hPa WNW 14.8 km/h 14.8 km/h 50 % 0.0 mm 735.0 W/m2 CLR
11:58 17.5 °C 6.9 °C 1021.2 hPa Calm   3.2 km/h 50 % 0.0 mm 745.0 W/m2 CLR
12:03 17.8 °C 6.9 °C 1021.2 hPa NW 14.8 km/h 14.8 km/h 49 % 0.0 mm 754.0 W/m2 CLR
12:08 18.3 °C 7.1 °C 1020.9 hPa North 1.9 km/h   48 % 0.0 mm 765.0 W/m2 CLR
12:13 18.5 °C 6.7 °C 1020.9 hPa WNW 16.7 km/h 16.7 km/h 46 % 0.0 mm 773.0 W/m2 CLR
12:18 18.5 °C 6.3 °C 1021.2 hPa NW 7.4 km/h 7.4 km/h 45 % 0.0 mm 782.0 W/m2 CLR
12:23 18.6 °C 6.8 °C 1020.9 hPa Calm     46 % 0.0 mm 793.0 W/m2 CLR
12:28 18.7 °C 5.8 °C 1020.9 hPa NW 11.1 km/h 11.1 km/h 43 % 0.0 mm 800.0 W/m2 CLR
12:33 18.7 °C 6.2 °C 1020.9 hPa West 11.1 km/h 11.1 km/h 44 % 0.0 mm 805.0 W/m2 CLR
12:38 19.0 °C 6.8 °C 1020.9 hPa NNW 11.1 km/h 11.1 km/h 45 % 0.0 mm 814.0 W/m2 CLR
12:43 19.2 °C 7.0 °C 1020.5 hPa NNW 9.3 km/h   45 % 0.0 mm 816.0 W/m2 CLR
12:48 19.3 °C 7.1 °C 1020.5 hPa West 12.9 km/h 12.9 km/h 45 % 0.0 mm 828.0 W/m2 CLR
12:54 19.4 °C 5.8 °C 1020.5 hPa West 16.1 km/h 16.1 km/h 41 % 0.0 mm 840.0 W/m2 CLR
12:59 19.8 °C 5.8 °C 1020.5 hPa North 5.6 km/h   40 % 0.0 mm 844.0 W/m2 CLR
13:04 20.1 °C 6.7 °C 1020.5 hPa NW 11.3 km/h 11.3 km/h 42 % 0.0 mm 847.0 W/m2 CLR
13:09 19.9 °C 6.2 °C 1020.5 hPa Calm     41 % 0.0 mm 853.0 W/m2 CLR
13:14 20.3 °C 5.1 °C 1020.2 hPa Calm     37 % 0.0 mm 856.0 W/m2 CLR
13:19 20.5 °C 6.4 °C 1020.2 hPa NNW 8.0 km/h 9.8 km/h 40 % 0.0 mm 860.0 W/m2 CLR
13:24 20.3 °C 5.9 °C 1020.2 hPa Calm     39 % 0.0 mm 863.0 W/m2 CLR
13:29 20.3 °C 6.3 °C 1020.2 hPa Calm     40 % 0.0 mm 865.0 W/m2 CLR
13:34 20.6 °C 7.2 °C 1020.2 hPa Calm     42 % 0.0 mm 867.0 W/m2 CLR
13:39 21.2 °C 6.7 °C 1020.2 hPa South 1.9 km/h   39 % 0.0 mm 877.0 W/m2 CLR
13:44 21.6 °C 6.6 °C 1019.9 hPa Calm     38 % 0.0 mm 872.0 W/m2 CLR
13:49 21.5 °C 6.9 °C 1019.9 hPa Calm     39 % 0.0 mm 874.0 W/m2 CLR
13:54 21.8 °C 6.8 °C 1019.9 hPa NW 9.3 km/h 9.3 km/h 38 % 0.0 mm 872.0 W/m2 CLR
13:59 21.6 °C 6.6 °C 1019.5 hPa Calm     38 % 0.0 mm 874.0 W/m2 CLR
14:04 21.4 °C 6.2 °C 1019.5 hPa NE 9.7 km/h 9.7 km/h 37 % 0.0 mm 875.0 W/m2 CLR
14:09 21.6 °C 5.4 °C 1019.5 hPa NE 3.7 km/h   35 % 0.0 mm 874.0 W/m2 CLR
14:14 21.7 °C 5.6 °C 1019.5 hPa North 5.6 km/h 5.6 km/h 35 % 0.0 mm 877.0 W/m2 CLR
14:19 21.7 °C 6.4 °C 1019.2 hPa NNW 9.7 km/h 9.7 km/h 37 % 0.0 mm 874.0 W/m2 CLR
14:24 21.8 °C 6.4 °C 1019.2 hPa WNW 9.3 km/h 9.3 km/h 37 % 0.0 mm 874.0 W/m2 CLR
14:29 21.8 °C 6.5 °C 1019.2 hPa ENE 9.3 km/h 9.3 km/h 37 % 0.0 mm 867.0 W/m2 CLR
14:34 22.0 °C 6.2 °C 1019.2 hPa ENE 1.6 km/h   36 % 0.0 mm 867.0 W/m2 CLR
14:39 22.3 °C 6.1 °C 1019.2 hPa Calm     35 % 0.0 mm 860.0 W/m2 CLR
14:44 22.6 °C 5.9 °C 1018.8 hPa NE 5.6 km/h 5.6 km/h 34 % 0.0 mm 860.0 W/m2 CLR
14:49 22.5 °C 5.4 °C 1018.8 hPa Calm     33 % 0.0 mm 854.0 W/m2 CLR
14:54 22.6 °C 5.9 °C 1018.8 hPa NNW 3.7 km/h 3.7 km/h 34 % 0.0 mm 853.0 W/m2 CLR
14:59 22.7 °C 5.6 °C 1018.8 hPa North 13.0 km/h 13.0 km/h 33 % 0.0 mm 847.0 W/m2 CLR
15:04 22.7 °C 5.6 °C 1018.8 hPa North 9.3 km/h 9.3 km/h 33 % 0.0 mm 844.0 W/m2 CLR
15:09 22.8 °C 5.3 °C 1018.8 hPa NNW 11.1 km/h 11.1 km/h 32 % 0.0 mm 838.0 W/m2 CLR
15:14 22.7 °C 5.6 °C 1018.5 hPa WNW 7.4 km/h 7.4 km/h 33 % 0.0 mm 833.0 W/m2 CLR
15:19 22.8 °C 5.7 °C 1018.5 hPa NNW 11.1 km/h 11.1 km/h 33 % 0.0 mm 828.0 W/m2 CLR
15:24 23.0 °C 4.9 °C 1018.5 hPa North 5.6 km/h 5.6 km/h 31 % 0.0 mm 823.0 W/m2 CLR
15:29 23.1 °C 5.1 °C 1018.5 hPa NNE 5.6 km/h 5.6 km/h 31 % 0.0 mm 814.0 W/m2 CLR
15:34 23.3 °C 6.2 °C 1018.5 hPa NNW 9.7 km/h 9.7 km/h 33 % 0.0 mm 807.0 W/m2 CLR
15:39 23.6 °C 5.9 °C 1018.2 hPa NNW 6.4 km/h 6.4 km/h 32 % 0.0 mm 800.0 W/m2 CLR
15:44 23.7 °C 6.4 °C 1018.2 hPa NNW 6.4 km/h 6.4 km/h 33 % 0.0 mm 793.0 W/m2 CLR
15:49 23.8 °C 6.1 °C 1018.2 hPa Calm     32 % 0.0 mm 784.0 W/m2 CLR
15:54 23.8 °C 6.1 °C 1018.2 hPa NE 3.2 km/h 3.2 km/h 32 % 0.0 mm 775.0 W/m2 CLR
15:59 23.9 °C 5.7 °C 1017.8 hPa NNW 9.3 km/h 9.3 km/h 31 % 0.0 mm 765.0 W/m2 CLR
16:04 23.7 °C 5.1 °C 1017.8 hPa NNE 9.3 km/h 9.3 km/h 30 % 0.0 mm 758.0 W/m2 CLR
16:09 23.5 °C 4.9 °C 1017.8 hPa Calm     30 % 0.0 mm 749.0 W/m2 CLR
16:14 23.7 °C 5.6 °C 1017.8 hPa SSW 5.6 km/h 5.6 km/h 31 % 0.0 mm 740.0 W/m2 CLR
16:19 24.2 °C 5.9 °C 1017.5 hPa NNW 9.3 km/h 9.3 km/h 31 % 0.0 mm 731.0 W/m2 CLR
16:24 24.2 °C 5.5 °C 1017.5 hPa NNW 3.7 km/h   30 % 0.0 mm 719.0 W/m2 CLR
16:29 24.2 °C 5.6 °C 1017.5 hPa North 9.3 km/h 9.3 km/h 30 % 0.0 mm 705.0 W/m2 CLR
16:34 24.1 °C 4.9 °C 1017.5 hPa NNW 7.4 km/h 7.4 km/h 29 % 0.0 mm 693.0 W/m2 CLR
16:39 24.2 °C 5.1 °C 1017.2 hPa North 7.4 km/h 7.4 km/h 29 % 0.0 mm 680.0 W/m2 CLR
16:44 24.1 °C 5.4 °C 1017.2 hPa NNW 6.4 km/h 6.4 km/h 30 % 0.0 mm 670.0 W/m2 CLR
16:49 24.3 °C 5.2 °C 1017.2 hPa Calm     29 % 0.0 mm 657.0 W/m2 CLR
16:54 24.5 °C 5.3 °C 1017.2 hPa North 9.3 km/h 9.3 km/h 29 % 0.0 mm 643.0 W/m2 CLR
16:59 24.6 °C 4.9 °C 1017.2 hPa WNW 5.6 km/h 5.6 km/h 28 % 0.0 mm 631.0 W/m2 CLR
17:04 24.5 °C 4.3 °C 1017.2 hPa NNW 12.9 km/h 12.9 km/h 27 % 0.0 mm 617.0 W/m2 CLR
17:09 24.2 °C 5.1 °C 1017.2 hPa WNW 11.1 km/h 11.1 km/h 29 % 0.0 mm 606.0 W/m2 CLR
17:14 24.1 °C 4.4 °C 1017.2 hPa NNW 7.4 km/h 7.4 km/h 28 % 0.0 mm 589.0 W/m2 CLR
17:19 24.3 °C 5.1 °C 1017.2 hPa NNW 11.1 km/h 11.1 km/h 29 % 0.0 mm 575.0 W/m2 CLR
17:24 24.2 °C 4.6 °C 1017.2 hPa NNE 11.1 km/h 11.1 km/h 28 % 0.0 mm 563.0 W/m2 CLR
17:29 24.1 °C 4.4 °C 1017.2 hPa North 13.0 km/h 13.0 km/h 28 % 0.0 mm 548.0 W/m2 CLR
17:34 24.1 °C 3.9 °C 1017.2 hPa NNE 11.1 km/h 11.1 km/h 27 % 0.0 mm 534.0 W/m2 CLR
17:39 24.1 °C 3.4 °C 1017.2 hPa NNE 8.0 km/h 8.0 km/h 26 % 0.0 mm 519.0 W/m2 CLR
17:44 24.1 °C 3.4 °C 1016.8 hPa North 5.6 km/h 5.6 km/h 26 % 0.0 mm 501.0 W/m2 CLR
17:49 24.2 °C 3.4 °C 1016.8 hPa Calm     26 % 0.0 mm 485.0 W/m2 CLR
17:54 24.4 °C 3.6 °C 1016.8 hPa Calm   2.3 km/h 26 % 0.0 mm 471.0 W/m2 CLR
17:59 24.6 °C 3.8 °C 1017.2 hPa NNE 3.7 km/h   26 % 0.0 mm 457.0 W/m2 CLR
18:04 24.6 °C 3.3 °C 1017.2 hPa NE 5.6 km/h 5.6 km/h 25 % 0.0 mm 441.0 W/m2 CLR
18:09 24.6 °C 3.8 °C 1016.8 hPa Calm   0.2 km/h 26 % 0.0 mm 424.0 W/m2 CLR
18:14 24.6 °C 3.2 °C 1016.8 hPa NW 7.4 km/h 7.4 km/h 25 % 0.0 mm 408.0 W/m2 CLR
18:19 24.4 °C 3.6 °C 1016.8 hPa NNW 5.6 km/h 5.6 km/h 26 % 0.0 mm 392.0 W/m2 CLR
18:25 24.6 °C 3.8 °C 1016.8 hPa North 7.4 km/h 7.4 km/h 26 % 0.0 mm 373.0 W/m2 CLR
18:30 24.6 °C 3.8 °C 1016.8 hPa NW 6.4 km/h 6.4 km/h 26 % 0.0 mm 359.0 W/m2 CLR
18:35 24.4 °C 4.2 °C 1016.8 hPa Calm     27 % 0.0 mm 343.0 W/m2 CLR
18:40 24.3 °C 4.1 °C 1016.8 hPa Calm     27 % 0.0 mm 325.0 W/m2 CLR
18:45 24.6 °C 3.8 °C 1016.8 hPa Calm     26 % 0.0 mm 306.0 W/m2 CLR
18:50 24.6 °C 3.8 °C 1016.5 hPa Calm     26 % 0.0 mm 292.0 W/m2 CLR
18:55 24.7 °C 3.9 °C 1016.8 hPa Calm     26 % 0.0 mm 274.0 W/m2 CLR
19:00 24.6 °C 3.8 °C 1016.8 hPa ENE 1.6 km/h   26 % 0.0 mm 251.0 W/m2 CLR
19:05 24.4 °C 3.7 °C 1016.5 hPa ENE 5.6 km/h 5.6 km/h 26 % 0.0 mm 236.0 W/m2 CLR
19:10 24.3 °C 3.6 °C 1016.5 hPa ENE 3.7 km/h 3.7 km/h 26 % 0.0 mm 216.0 W/m2 CLR
19:15 24.1 °C 3.3 °C 1016.5 hPa Calm     26 % 0.0 mm 197.0 W/m2 CLR
19:20 24.0 °C 3.8 °C 1016.5 hPa ENE 3.7 km/h 3.7 km/h 27 % 0.0 mm 178.0 W/m2 CLR
19:25 23.9 °C 3.2 °C 1016.5 hPa ENE 1.9 km/h 1.9 km/h 26 % 0.0 mm 155.0 W/m2 CLR
19:30 23.7 °C 3.1 °C 1016.5 hPa Calm     26 % 0.0 mm 137.0 W/m2 CLR
19:35 23.7 °C 3.6 °C 1016.5 hPa Calm     27 % 0.0 mm 120.0 W/m2 CLR
19:40 23.7 °C 3.0 °C 1016.5 hPa Calm     26 % 0.0 mm 104.0 W/m2 CLR
19:45 23.6 °C 3.4 °C 1016.5 hPa Calm     27 % 0.0 mm 84.0 W/m2 CLR
19:50 23.4 °C 3.4 °C 1016.5 hPa Calm     27 % 0.0 mm 67.0 W/m2 FEW
19:55 23.3 °C 3.3 °C 1016.5 hPa Calm     27 % 0.0 mm 49.0 W/m2 SCT
20:00 23.3 °C 3.2 °C 1016.5 hPa Calm     27 % 0.0 mm 42.0 W/m2 BKN
20:05 23.1 °C 3.1 °C 1016.5 hPa Calm     27 % 0.0 mm 32.0 W/m2 BKN
20:10 23.0 °C 3.0 °C 1016.5 hPa Calm     27 % 0.0 mm 19.0 W/m2 BKN
20:15 22.8 °C 2.8 °C 1016.5 hPa Calm     27 % 0.0 mm 14.0 W/m2 BKN
20:20 22.5 °C 3.1 °C 1016.5 hPa Calm     28 % 0.0 mm 12.0 W/m2 BKN
20:25 22.2 °C 2.8 °C 1016.5 hPa Calm     28 % 0.0 mm 9.0 W/m2 BKN
20:30 22.1 °C 3.2 °C 1016.5 hPa Calm     29 % 0.0 mm 7.0 W/m2 BKN
20:35 21.8 °C 3.0 °C 1016.5 hPa Calm     29 % 0.0 mm 5.0 W/m2 OVC
20:40 21.7 °C 2.8 °C 1016.5 hPa Calm     29 % 0.0 mm 0.0 W/m2 OVC
20:45 21.4 °C 3.6 °C 1016.5 hPa Calm     31 % 0.0 mm 0.0 W/m2 OVC
20:50 21.1 °C 3.7 °C 1016.5 hPa Calm     32 % 0.0 mm 0.0 W/m2 CLR
20:55 20.6 °C 4.2 °C 1016.5 hPa Calm     34 % 0.0 mm 0.0 W/m2 CLR
21:00 19.9 °C 4.8 °C 1016.5 hPa Calm     37 % 0.0 mm 0.0 W/m2 CLR
21:05 19.3 °C 4.6 °C 1016.5 hPa Calm     38 % 0.0 mm 0.0 W/m2 CLR
21:10 18.7 °C 4.5 °C 1016.8 hPa Calm     39 % 0.0 mm 0.0 W/m2 CLR
21:15 18.2 °C 4.7 °C 1016.8 hPa Calm     41 % 0.0 mm 0.0 W/m2 CLR
21:20 17.6 °C 4.8 °C 1016.8 hPa Calm     43 % 0.0 mm 0.0 W/m2 CLR
21:25 16.9 °C 4.9 °C 1016.8 hPa Calm     45 % 0.0 mm 0.0 W/m2 CLR
21:30 16.4 °C 4.8 °C 1017.2 hPa Calm     46 % 0.0 mm 0.0 W/m2 CLR
21:35 16.0 °C 5.0 °C 1017.2 hPa Calm     48 % 0.0 mm 0.0 W/m2 CLR
21:40 15.5 °C 4.8 °C 1017.2 hPa Calm     49 % 0.0 mm 0.0 W/m2 CLR
21:45 15.2 °C 4.6 °C 1017.2 hPa Calm     49 % 0.0 mm 0.0 W/m2 CLR
21:50 15.1 °C 4.7 °C 1017.2 hPa Calm     50 % 0.0 mm 0.0 W/m2 CLR
21:55 14.9 °C 4.6 °C 1017.5 hPa Calm     50 % 0.0 mm 0.0 W/m2 CLR
22:00 14.8 °C 4.8 °C 1017.5 hPa Calm     51 % 0.0 mm 0.0 W/m2 CLR
22:05 14.7 °C 4.9 °C 1017.5 hPa Calm     52 % 0.0 mm 0.0 W/m2 CLR
22:10 14.4 °C 4.7 °C 1017.5 hPa Calm     52 % 0.0 mm 0.0 W/m2 CLR
22:15 14.1 °C 4.7 °C 1017.5 hPa Calm     53 % 0.0 mm 0.0 W/m2 CLR
22:20 13.9 °C 4.7 °C 1017.8 hPa Calm     54 % 0.0 mm 0.0 W/m2 CLR
22:25 13.7 °C 4.5 °C 1017.8 hPa Calm     54 % 0.0 mm 0.0 W/m2 CLR
22:30 13.5 °C 4.9 °C 1017.8 hPa Calm     56 % 0.0 mm 0.0 W/m2 CLR
22:35 13.3 °C 4.7 °C 1017.8 hPa Calm     56 % 0.0 mm 0.0 W/m2 CLR
22:40 13.1 °C 4.8 °C 1017.8 hPa Calm     57 % 0.0 mm 0.0 W/m2 CLR
22:45 12.9 °C 4.8 °C 1017.8 hPa Calm     58 % 0.0 mm 0.0 W/m2 CLR
22:50 12.7 °C 4.7 °C 1017.8 hPa Calm     58 % 0.0 mm 0.0 W/m2 CLR
22:55 12.6 °C 4.6 °C 1017.8 hPa Calm     58 % 0.0 mm 0.0 W/m2 CLR
23:00 12.5 °C 4.4 °C 1017.8 hPa Calm     58 % 0.0 mm 0.0 W/m2 CLR
23:05 12.3 °C 4.5 °C 1017.8 hPa Calm     59 % 0.0 mm 0.0 W/m2 CLR
23:10 12.1 °C 4.3 °C 1018.2 hPa Calm     59 % 0.0 mm 0.0 W/m2 CLR
23:15 12.0 °C 4.4 °C 1018.2 hPa Calm     60 % 0.0 mm 0.0 W/m2 CLR
23:20 11.9 °C 4.4 °C 1018.2 hPa Calm     60 % 0.0 mm 0.0 W/m2 CLR
23:25 11.8 °C 4.3 °C 1018.2 hPa Calm     60 % 0.0 mm 0.0 W/m2 CLR
23:30 11.6 °C 4.3 °C 1018.2 hPa Calm     61 % 0.0 mm 0.0 W/m2 CLR
23:35 11.4 °C 4.2 °C 1018.2 hPa Calm     61 % 0.0 mm 0.0 W/m2 CLR
23:40 11.3 °C 4.1 °C 1018.2 hPa Calm     61 % 0.0 mm 0.0 W/m2 CLR
23:45 11.3 °C 4.3 °C 1018.2 hPa Calm     62 % 0.0 mm 0.0 W/m2 CLR
23:50 11.1 °C 4.1 °C 1018.2 hPa Calm     62 % 0.0 mm 0.0 W/m2 CLR
23:55 11.0 °C 4.0 °C 1018.5 hPa Calm     62 % 0.0 mm 0.0 W/m2 CLR
Lo Temps de Massalio
Compliments of Weather Underground - 1.25 mb